Cinque Terre — IUTV — position and weather

sailwx.info

Track history (hours):
 
Tides and Currents Weather Stations Pressure Air Temp Water Temp Dewpoint Dewpoint Depression Visibility Wind Speed Wind Dir Waves Ship Positions

Cinque Terre

Last reported at 2014-Jul-29 06:29 UTC. Time now 2014-Jul-29 06:44 UTC.
Position N 40°38' E 014°22'.

Length 15 m; draft 1 m.

Type: Passenger vessel. MMSI: 247208400.

Date/timePositionNaut miles runAvg speedWind from/ knotsBaromVisibWave heightAir tempDewpointWater temp
2014-Jul-29 06:29N 40°38' E 014°22'2 0.0
2014-Jul-27 15:33N 40°37' E 014°20'4 3.6
2014-Jul-27 14:33N 40°34' E 014°16'1 0.1
2014-Jul-27 07:33N 40°34' E 014°16'4 0.3
2014-Jul-26 15:33N 40°37' E 014°20'4 3.6
2014-Jul-26 14:32N 40°34' E 014°16'2 2.4
2014-Jul-26 13:33N 40°33' E 014°14'0 0.0
2014-Jul-26 11:32N 40°33' E 014°14'2 0.6
2014-Jul-26 08:25N 40°32' E 014°12'4 4.4
2014-Jul-26 07:30N 40°35' E 014°16'5 5.3
2014-Jul-26 06:30N 40°38' E 014°22'6 0.3
2014-Jul-25 07:34N 40°34' E 014°15'6 5.7
2014-Jul-25 06:33N 40°38' E 014°21'0 0.0
2014-Jul-24 15:32N 40°38' E 014°21'8 1.0
2014-Jul-24 07:33N 40°34' E 014°12'8 8.0
2014-Jul-24 06:33N 40°38' E 014°21'7 0.3
2014-Jul-23 07:33N 40°34' E 014°14'7 6.4
2014-Jul-23 06:27N 40°38' E 014°21'  
2014-Jul-20 16:17N 40°37' E 014°20'2 2.3
2014-Jul-20 15:33N 40°38' E 014°21'7 6.9
2014-Jul-20 14:33N 40°33' E 014°15'1 0.4
2014-Jul-20 11:33N 40°33' E 014°14'0 0.0
2014-Jul-20 10:33N 40°33' E 014°14'0 0.0
2014-Jul-20 09:33N 40°33' E 014°14'0 0.0
2014-Jul-20 08:33N 40°33' E 014°14'2 2.0
2014-Jul-20 07:33N 40°34' E 014°15'7 6.5
2014-Jul-20 06:32N 40°38' E 014°23'2 0.1
2014-Jul-19 16:33N 40°37' E 014°20'5 4.8
2014-Jul-19 15:33N 40°34' E 014°16'2 1.9
2014-Jul-19 14:33N 40°33' E 014°14'0 0.0
2014-Jul-19 13:33N 40°33' E 014°14'0 0.0
2014-Jul-19 12:33N 40°33' E 014°14'0 0.0
2014-Jul-19 11:33N 40°33' E 014°14'0 0.0
2014-Jul-19 10:28N 40°33' E 014°14'0 0.0
2014-Jul-19 09:33N 40°33' E 014°14'1 0.6
2014-Jul-19 08:33N 40°32' E 014°13'3 2.9
2014-Jul-19 07:33N 40°35' E 014°16'6 5.5
2014-Jul-19 06:33N 40°38' E 014°21'  
Track history (hours):
 
Tides and Currents Weather Stations Pressure Air Temp Water Temp Dewpoint Dewpoint Depression Visibility Wind Speed Wind Dir Waves Ship Positions

Cinque Terre

Last reported at 2014-Jul-29 06:29 UTC. Time now 2014-Jul-29 06:44 UTC.
Position N 40°38' E 014°22'.

Length 15 m; draft 1 m.

Type: Passenger vessel. MMSI: 247208400.

Date/timePositionNaut miles runAvg speedWind from/ knotsBaromVisibWave heightAir tempDewpointWater temp
2014-Jul-29 06:29N 40°38' E 014°22'2 0.0
2014-Jul-27 15:33N 40°37' E 014°20'4 3.6
2014-Jul-27 14:33N 40°34' E 014°16'1 0.1
2014-Jul-27 07:33N 40°34' E 014°16'4 0.3
2014-Jul-26 15:33N 40°37' E 014°20'4 3.6
2014-Jul-26 14:32N 40°34' E 014°16'2 2.4
2014-Jul-26 13:33N 40°33' E 014°14'0 0.0
2014-Jul-26 11:32N 40°33' E 014°14'2 0.6
2014-Jul-26 08:25N 40°32' E 014°12'4 4.4
2014-Jul-26 07:30N 40°35' E 014°16'5 5.3
2014-Jul-26 06:30N 40°38' E 014°22'6 0.3
2014-Jul-25 07:34N 40°34' E 014°15'6 5.7
2014-Jul-25 06:33N 40°38' E 014°21'0 0.0
2014-Jul-24 15:32N 40°38' E 014°21'8 1.0
2014-Jul-24 07:33N 40°34' E 014°12'8 8.0
2014-Jul-24 06:33N 40°38' E 014°21'7 0.3
2014-Jul-23 07:33N 40°34' E 014°14'7 6.4
2014-Jul-23 06:27N 40°38' E 014°21'  
2014-Jul-20 16:17N 40°37' E 014°20'2 2.3
2014-Jul-20 15:33N 40°38' E 014°21'7 6.9
2014-Jul-20 14:33N 40°33' E 014°15'1 0.4
2014-Jul-20 11:33N 40°33' E 014°14'0 0.0
2014-Jul-20 10:33N 40°33' E 014°14'0 0.0
2014-Jul-20 09:33N 40°33' E 014°14'0 0.0
2014-Jul-20 08:33N 40°33' E 014°14'2 2.0
2014-Jul-20 07:33N 40°34' E 014°15'7 6.5
2014-Jul-20 06:32N 40°38' E 014°23'2 0.1
2014-Jul-19 16:33N 40°37' E 014°20'5 4.8
2014-Jul-19 15:33N 40°34' E 014°16'2 1.9
2014-Jul-19 14:33N 40°33' E 014°14'0 0.0
2014-Jul-19 13:33N 40°33' E 014°14'0 0.0
2014-Jul-19 12:33N 40°33' E 014°14'0 0.0
2014-Jul-19 11:33N 40°33' E 014°14'0 0.0
2014-Jul-19 10:28N 40°33' E 014°14'0 0.0
2014-Jul-19 09:33N 40°33' E 014°14'1 0.6
2014-Jul-19 08:33N 40°32' E 014°13'3 2.9
2014-Jul-19 07:33N 40°35' E 014°16'6 5.5
2014-Jul-19 06:33N 40°38' E 014°21'  

Dump ship's entire track history